GFSNW_prec_cthk_021.txt.gz
RH
30 40 50 39 43 46 52 55 73 81 79 85 92 98 99 95 91 80 74 68 69 75 72 65 52 55 51 50 52 53 55 61 70 61 54 52 52 57 62 71 66 72 79 59
26 34 41 39 49 51 55 63 74 74 79 85 96 92 86 89 84 80 74 68 66 63 59 58 56 58 54 54 57 58 58 64 68 64 59 56 63 66 67 69 75 75 85 58
21 33 36 41 52 52 56 62 68 71 76 80 86 86 88 84 79 77 70 67 59 63 62 60 64 64 59 59 59 56 55 62 64 65 65 68 75 71 73 79 86 73 72 63
18 26 32 38 45 53 55 59 63 67 72 75 78 78 77 74 73 70 70 67 65 58 60 58 61 59 58 56 58 56 58 69 68 63 65 70 71 75 78 82 80 89 68 77
18 10 27 33 47 45 46 54 60 62 65 68 73 73 72 70 69 70 69 70 66 64 59 58 56 55 56 55 56 61 65 71 77 77 73 78 85 81 80 82 83 85 84 82
21 13 10 27 40 50 52 53 58 62 61 62 64 64 67 65 66 65 65 62 63 73 66 59 58 55 55 57 62 65 69 77 85 88 81 83 89 83 82 84 86 85 90 82
26 20 13 10 25 41 53 56 54 59 61 58 59 61 60 62 65 60 59 57 57 62 66 64 63 63 65 65 64 67 78 83 93 95 88 89 82 79 82 84 82 83 82 78
40 28 21 17 8 21 42 56 60 59 62 64 56 55 60 62 64 64 62 62 62 62 61 68 72 73 69 63 65 71 74 88 92 96 96 81 79 83 85 82 77 76 75 77
45 43 35 25 23 10 16 43 56 62 60 58 63 60 56 65 67 69 68 67 64 65 67 68 68 67 73 73 74 73 79 88 91 92 97 92 78 79 78 79 82 72 73 76
47 45 45 43 35 23 14 21 35 57 64 62 62 66 65 65 65 70 68 70 69 71 74 74 70 67 65 75 77 82 84 92 91 89 94 82 74 76 78 85 71 71 72 74
47 46 45 43 43 41 25 20 23 38 56 61 66 70 72 71 68 71 73 74 77 81 81 77 73 71 70 70 72 83 85 89 89 86 89 83 69 72 76 70 68 69 70 73
53 50 45 46 41 38 36 25 27 30 36 47 67 70 74 72 77 78 76 78 79 80 82 78 78 77 77 76 79 75 81 79 82 75 71 66 67 68 69 68 66 67 69 73
54 52 49 52 49 43 39 34 29 35 30 30 62 70 79 78 77 80 81 79 83 83 79 84 86 85 78 79 79 76 76 77 78 76 66 70 69 70 70 66 65 65 70 73
57 54 50 53 50 50 49 41 36 34 38 40 72 85 84 82 78 81 81 84 87 86 85 90 91 88 84 79 79 79 77 80 82 77 73 71 71 69 66 67 67 68 72 76
58 55 51 55 59 53 44 43 36 32 41 59 86 98 97 86 78 80 84 86 88 89 86 91 89 86 85 81 80 80 72 73 77 78 77 76 74 70 68 69 70 70 73 78
56 54 59 55 51 53 54 51 38 37 40 76 97 99 98 90 83 84 86 90 91 88 87 91 90 86 87 84 85 76 70 75 75 73 72 70 69 68 70 73 72 73 76 75
57 52 55 51 47 49 57 52 53 54 92 97 98 99 99 92 93 94 95 95 94 90 85 88 90 89 88 85 84 76 78 76 75 76 74 74 74 73 73 74 76 76 79 80
49 54 44 42 45 39 46 45 65 90 97 97 98 99 97 93 96 96 96 97 95 93 92 90 92 89 89 89 89 89 89 85 82 80 79 78 76 75 75 74 81 82 84 81
47 40 40 39 41 53 68 84 92 96 98 98 98 95 97 96 97 98 97 95 94 92 95 91 90 89 93 92 94 93 90 87 84 82 82 79 77 76 75 76 81 83 88 83
50 44 48 57 71 82 92 97 98 98 98 98 99 97 96 95 96 96 95 96 98 97 94 89 90 87 89 88 87 86 82 80 79 82 82 81 79 77 76 77 80 84 91 90
49 57 54 67 72 83 89 92 94 96 98 98 98 95 94 94 94 94 94 94 95 95 90 86 85 87 85 85 76 72 77 79 81 83 83 87 87 85 83 82 82 82 88 95
48 56 60 80 81 82 83 86 88 92 94 94 95 94 92 90 88 88 88 90 91 90 86 87 83 84 80 71 71 70 78 85 89 86 83 84 84 86 87 87 85 83 86 89
50 64 64 80 81 80 80 80 81 84 88 90 92 92 90 88 87 86 86 84 84 79 83 81 84 80 71 70 71 76 84 91 94 91 90 89 89 88 91 91 91 86 87 95
48 66 71 76 76 73 74 78 79 82 84 86 87 89 90 87 86 85 80 79 81 83 86 84 86 75 75 75 71 74 89 93 95 94 93 88 91 95 97 96 92 89 93 96
50 57 70 77 76 74 74 73 77 81 83 86 87 87 86 86 85 81 81 83 81 77 81 86 85 78 77 76 75 73 75 89 92 95 88 86 90 96 97 97 95 95 97 91
64 52 56 70 77 78 75 75 79 81 82 84 88 88 88 86 82 83 78 76 75 80 80 80 79 78 77 75 73 73 74 73 77 87 90 88 88 88 90 93 95 95 93 90
72 60 46 46 71 79 74 75 77 79 83 86 87 87 84 86 86 81 77 80 82 82 81 78 77 78 79 79 77 74 70 70 72 73 73 78 85 86 87 88 89 89 89 89

GFSNW_prec_cthk_024.txt.gz
RH
31 29 31 40 42 45 49 51 55 63 73 80 85 87 85 84 83 77 73 70 69 69 72 59 54 55 51 49 47 50 49 53 62 59 54 54 55 57 56 67 63 77 78 61
24 28 33 40 41 42 49 54 60 59 59 70 77 82 81 76 71 66 63 62 66 71 72 65 52 52 50 50 51 50 48 55 64 59 57 55 58 57 62 67 73 83 85 60
16 23 29 39 43 44 47 51 57 59 66 65 67 71 76 71 67 65 56 60 62 65 60 54 55 55 54 54 54 53 53 59 57 63 60 61 66 68 70 75 86 78 76 57
15 17 24 34 40 42 43 47 56 62 65 63 66 68 66 66 67 65 60 61 60 62 60 60 63 59 58 58 56 55 54 60 65 64 63 67 69 71 75 79 73 80 67 72
22 14 14 26 40 39 39 46 52 55 60 61 63 61 62 65 65 63 64 63 62 59 63 58 60 57 57 57 58 57 59 69 66 69 67 71 77 77 79 77 75 75 72 72
34 22 15 11 25 40 44 46 51 56 54 56 57 57 58 59 60 62 63 63 67 67 63 58 56 53 52 54 56 61 65 68 74 77 76 81 84 80 80 77 77 78 83 72
42 36 24 18 12 21 45 50 52 53 55 57 57 57 58 59 62 58 58 56 58 66 68 64 60 59 57 59 61 62 72 73 80 89 86 88 78 76 79 78 76 77 76 73
49 47 38 30 21 15 18 39 53 58 53 58 57 58 56 58 59 58 60 60 58 58 62 69 73 72 66 67 66 67 69 76 87 90 92 81 76 81 83 82 75 71 74 73
53 56 50 44 38 29 20 25 27 50 59 54 60 58 56 59 61 64 62 63 63 61 65 68 69 74 68 77 78 68 74 75 93 92 95 93 79 81 78 79 86 69 71 72
52 51 56 55 54 49 35 28 25 30 42 52 61 60 59 58 60 62 65 65 66 67 71 73 72 70 72 80 77 77 80 82 92 90 91 83 74 78 80 84 73 69 69 71
61 54 56 55 60 60 56 45 37 33 34 27 49 61 65 64 62 67 65 67 70 74 79 78 75 72 70 70 69 74 79 85 92 94 87 88 74 78 79 72 70 68 69 70
70 60 58 56 57 54 53 53 51 47 42 25 26 49 61 67 72 73 74 69 70 70 77 78 79 78 77 76 76 72 82 78 84 82 75 66 69 69 68 71 68 67 67 70
76 68 60 59 54 58 58 55 53 50 44 30 25 20 57 68 73 81 82 74 75 77 75 80 85 82 78 81 77 76 75 78 82 84 71 70 70 70 70 70 67 68 68 72
78 73 61 58 55 62 68 63 53 56 48 41 22 32 55 73 82 85 86 84 80 81 80 82 88 88 86 84 81 84 79 78 79 82 76 73 73 70 69 67 67 68 71 75
81 67 60 62 68 62 56 55 53 51 54 42 33 28 51 83 91 93 92 88 86 88 88 87 90 91 90 88 84 85 75 72 74 73 73 74 74 75 71 68 68 69 71 76
71 62 58 63 55 52 49 50 55 48 43 47 43 61 74 98 99 97 94 92 89 92 89 88 87 92 88 89 87 79 74 74 71 73 74 71 71 74 71 67 71 73 72 75
64 57 60 49 47 44 43 47 49 56 59 75 96 96 98 99 98 96 89 91 96 94 92 88 89 89 89 88 85 81 82 84 83 79 77 77 76 74 73 72 73 76 74 77
56 53 45 42 36 34 43 54 69 85 96 98 97 97 99 99 97 97 95 97 97 97 94 93 91 89 88 85 80 85 86 85 85 85 83 80 79 77 77 75 76 75 78 81
47 56 49 49 59 69 76 82 88 93 96 96 97 99 99 97 95 98 97 99 99 96 95 94 90 87 88 82 81 82 85 83 80 82 84 84 81 80 80 77 76 76 79 84
48 62 59 62 71 70 76 86 93 96 97 98 98 98 94 94 94 96 97 97 98 98 97 95 94 87 84 83 81 80 79 82 77 79 77 80 82 82 81 79 77 77 79 88
48 64 66 66 69 71 76 78 88 94 96 98 97 98 97 97 96 98 97 98 98 97 96 96 93 87 82 84 81 73 71 76 82 89 86 83 84 85 84 82 80 79 81 90
48 58 67 71 77 77 76 79 83 90 94 97 99 98 98 98 96 94 95 94 96 96 96 94 87 85 84 74 70 71 78 78 87 90 90 86 84 87 87 86 88 86 85 90
53 65 70 75 81 80 80 82 85 89 91 94 96 97 97 95 92 89 90 91 90 88 92 86 83 83 75 74 72 72 84 90 94 93 93 90 89 89 87 88 90 91 90 92
62 67 74 72 81 75 77 81 81 84 87 91 94 97 96 94 93 93 89 86 83 85 84 80 82 79 75 76 76 73 83 93 96 98 96 93 94 93 93 96 94 93 92 93
67 69 76 73 73 78 76 76 79 83 86 90 92 95 95 95 93 89 87 85 83 79 76 83 85 78 80 79 77 75 75 77 83 91 94 90 91 93 97 98 98 97 96 97
75 75 70 67 74 78 77 79 79 81 83 88 92 95 94 93 88 87 83 79 73 74 75 78 79 77 80 79 77 75 73 75 75 77 85 88 89 92 95 97 98 98 97 98
84 83 76 65 49 69 83 81 83 85 86 87 89 89 85 88 87 85 81 79 78 77 77 76 76 76 75 74 74 75 75 74 73 73 73 74 77 82 86 88 93 96 97 98

GFSNW_prec_cthk_027.txt.gz
RH
18 30 34 37 37 40 46 50 55 59 65 66 70 72 73 68 66 65 65 67 69 72 72 66 56 56 53 48 54 57 55 58 65 60 56 54 53 55 54 59 57 68 70 61
19 23 31 37 39 40 43 49 53 55 59 67 69 70 68 66 64 66 64 64 65 66 68 60 51 49 44 50 48 53 52 55 62 59 57 56 56 54 55 57 63 71 75 65
18 18 26 36 38 41 44 49 54 53 58 65 68 72 69 66 63 59 59 60 64 68 66 58 54 52 51 49 51 52 50 54 56 60 57 58 60 57 60 66 78 76 71 64
27 16 17 24 37 38 39 44 54 59 61 58 62 65 65 67 67 59 56 63 62 66 65 60 57 53 53 54 54 55 54 61 63 60 59 60 61 63 67 73 73 80 64 66
38 26 16 13 25 41 38 41 48 57 61 61 60 60 62 63 63 64 59 60 61 63 62 60 61 58 57 56 56 56 58 68 65 64 57 61 68 65 70 74 77 74 73 71
49 38 25 19 12 26 42 46 45 50 56 60 60 59 59 59 60 62 62 62 65 66 65 59 56 55 56 55 56 59 61 66 68 67 66 73 80 74 75 77 73 72 76 68
60 50 34 29 22 17 26 43 49 48 50 54 58 61 61 60 62 60 62 61 62 69 69 64 63 60 57 57 57 58 66 69 70 72 78 87 73 75 77 78 74 73 72 70
70 58 46 39 37 30 23 29 35 47 48 47 53 56 61 60 60 61 61 61 61 61 64 70 72 69 63 62 61 64 63 69 74 79 88 81 74 79 83 82 76 74 72 73
80 59 55 50 47 44 38 30 33 38 38 45 52 57 60 60 59 61 63 63 64 62 65 69 73 77 68 71 72 71 68 70 80 89 91 93 78 82 80 79 85 76 73 72
84 68 60 57 57 56 50 47 40 37 43 36 43 54 60 61 59 60 63 68 67 67 71 73 73 70 69 76 74 78 79 76 80 89 89 80 74 76 83 87 80 74 70 70
89 82 69 67 68 66 67 59 55 52 47 37 35 45 55 60 64 61 61 68 70 74 76 76 74 73 71 74 72 77 77 77 81 88 93 84 74 82 87 80 74 72 68 69
90 89 81 73 69 69 72 70 70 68 68 54 45 36 37 52 60 70 70 67 68 66 72 77 79 78 76 73 75 72 76 71 82 81 81 70 73 78 76 72 71 68 67 68
87 90 84 76 66 63 63 66 69 68 66 59 57 45 34 38 50 65 71 73 75 74 72 77 80 78 77 80 78 76 75 74 78 83 79 79 75 74 72 70 68 67 67 68
93 92 89 82 66 63 69 73 66 61 57 54 37 32 36 43 58 67 71 81 83 83 80 79 80 79 79 80 76 77 77 77 76 78 78 79 77 72 70 70 69 66 66 68
94 88 86 69 64 67 59 53 48 50 54 49 39 31 19 20 42 69 82 84 93 89 87 85 83 81 82 84 82 81 73 70 71 72 73 75 74 75 74 71 70 68 69 68
85 80 69 55 56 52 48 41 45 51 60 62 48 27 22 27 38 75 91 93 97 93 91 91 86 81 83 86 87 78 71 70 73 74 76 73 74 74 72 72 72 68 69 72
80 68 50 52 47 46 51 51 61 72 85 86 86 83 59 38 82 98 99 98 98 91 93 93 90 87 86 87 85 79 77 76 78 77 79 77 73 75 74 73 73 70 71 76
69 43 55 55 54 49 56 68 69 82 88 90 97 76 81 86 98 96 99 97 94 95 98 96 91 89 88 85 81 76 76 77 78 78 80 77 77 76 78 76 75 73 74 75
54 47 60 66 64 68 70 74 83 85 90 97 97 97 97 96 93 95 95 93 93 94 96 94 92 90 84 78 75 73 73 76 79 77 72 75 80 78 79 79 78 77 76 75
44 55 69 71 71 76 81 86 88 89 90 94 97 95 99 97 95 97 95 94 98 98 93 94 90 86 81 79 78 76 75 70 66 73 72 73 76 80 82 82 81 79 78 77
51 54 71 72 71 75 82 84 87 89 92 94 97 98 98 97 95 95 94 95 99 97 97 96 92 87 82 82 81 79 71 68 71 74 84 88 86 81 85 87 85 82 79 78
59 50 58 72 77 79 79 78 84 89 93 94 98 98 94 98 97 97 98 98 98 96 93 95 88 85 81 80 77 72 71 80 87 90 90 89 91 87 86 87 85 84 84 82
68 64 63 80 84 81 80 78 82 89 91 94 97 99 99 98 96 97 97 93 96 94 96 87 83 85 82 74 74 73 82 90 90 91 93 93 93 91 90 88 87 87 86 89
76 74 72 75 84 86 83 82 85 86 92 94 96 98 98 97 96 93 89 90 88 86 81 76 76 79 77 75 76 76 77 83 87 95 97 97 99 98 96 95 91 89 89 89
78 79 77 79 76 87 84 81 82 85 87 91 94 95 98 96 94 92 90 89 84 77 76 76 80 79 78 79 79 79 77 78 80 87 94 95 94 95 95 95 96 96 98 96
86 82 76 73 78 81 81 81 81 84 88 91 94 96 96 96 93 93 89 82 76 74 75 75 79 79 79 80 79 78 78 77 77 78 78 81 87 90 92 96 98 98 98 98
82 85 84 85 81 71 72 76 87 88 88 91 92 92 91 94 92 89 84 82 79 77 75 75 73 72 72 72 71 71 73 74 75 76 75 76 75 76 83 87 92 97 98 98

GFSNW_prec_cthk_033.txt.gz
RH
72 58 40 18 23 34 37 47 59 58 53 52 59 65 66 65 66 63 57 60 64 68 71 71 69 69 61 59 56 57 60 67 75 68 65 66 66 67 64 63 57 58 55 38
61 80 48 33 19 30 38 42 52 57 58 66 62 60 60 63 60 63 63 62 64 69 62 64 64 64 60 58 55 55 57 60 70 65 64 64 66 64 58 53 53 60 51 38
56 62 69 47 19 23 36 38 47 51 58 65 66 69 69 68 66 63 64 62 66 67 67 58 58 55 55 51 49 53 56 58 57 55 53 58 62 58 55 54 61 54 53 50
57 52 75 51 38 19 30 38 44 51 58 58 62 68 68 67 66 65 63 61 61 67 71 68 58 52 52 51 49 52 53 59 59 55 53 59 59 59 59 58 55 60 55 61
55 61 71 63 46 35 23 41 45 45 54 59 59 59 64 67 68 68 60 68 70 71 71 63 64 54 51 52 55 54 56 66 62 61 58 61 62 58 58 58 60 64 68 70
63 69 75 69 51 45 35 28 41 48 47 52 55 57 60 66 66 65 64 61 66 70 66 64 63 56 54 54 57 59 60 66 67 66 60 62 63 57 58 62 65 68 79 70
70 74 85 69 64 55 44 34 30 38 48 51 55 56 60 62 65 64 66 64 64 68 66 63 62 63 63 62 62 60 65 68 68 68 64 70 54 67 71 74 74 76 73 69
72 78 87 80 75 65 59 40 36 41 37 43 48 53 57 58 60 62 63 66 65 65 69 72 72 70 65 65 64 64 63 68 71 70 70 59 60 72 78 81 82 79 76 70
76 79 90 94 79 75 65 55 46 42 45 45 40 44 55 59 59 60 62 64 67 66 67 67 75 80 73 77 75 69 67 66 69 71 71 73 63 77 81 83 90 82 78 74
86 87 91 95 96 88 79 69 58 54 52 47 49 49 45 58 65 63 63 66 67 67 67 68 70 73 69 78 73 77 79 79 73 72 71 62 60 80 82 95 88 84 80 76
97 98 97 95 97 97 95 87 81 72 68 64 63 60 56 52 62 71 70 73 71 69 69 68 68 69 68 71 71 70 70 75 73 70 75 69 57 73 86 89 85 85 81 77
98 97 98 97 95 96 94 94 87 87 87 76 72 76 78 73 62 65 74 76 72 71 71 67 65 69 70 69 75 72 74 66 70 66 65 59 61 75 79 84 86 85 82 77
97 97 97 97 97 96 95 89 83 87 88 82 76 58 58 58 63 62 67 81 85 77 72 69 67 67 68 72 72 72 71 69 70 69 62 66 69 71 80 80 84 85 83 79
97 97 97 97 97 97 95 84 80 81 74 63 40 38 37 33 29 32 42 66 94 90 86 75 71 66 64 69 67 70 71 74 72 72 69 70 71 74 78 82 81 80 79 75
97 98 97 97 93 83 76 69 62 58 56 55 52 49 44 45 49 49 43 38 73 92 93 87 75 68 68 70 69 67 69 72 74 73 70 71 70 70 74 76 80 80 75 71
98 97 97 90 70 71 66 61 60 58 62 64 60 52 57 55 57 57 52 48 57 94 99 98 83 67 67 71 69 62 62 66 68 71 71 70 67 69 69 75 75 75 74 72
97 97 96 62 65 69 70 66 68 71 73 70 65 64 63 52 45 38 41 49 60 96 98 90 96 83 73 70 68 65 64 67 71 72 71 69 68 70 71 70 72 74 76 73
97 97 79 52 73 75 75 81 80 82 83 73 73 73 75 74 59 47 45 56 79 98 98 95 91 84 78 74 66 67 67 66 69 72 72 70 70 69 67 64 66 71 74 76
97 94 67 68 79 78 82 84 88 86 90 83 82 81 95 90 74 70 76 83 95 98 98 97 93 87 79 72 72 73 73 75 74 72 68 66 64 62 64 64 64 69 70 73
96 86 75 73 78 82 81 87 90 91 92 92 91 90 92 98 95 90 98 95 98 99 97 91 90 83 76 75 77 75 74 74 72 71 67 63 68 66 67 69 66 70 74 74
96 93 78 67 59 70 84 87 91 94 95 95 96 96 95 93 99 98 99 96 94 94 97 89 83 79 78 77 77 77 77 75 73 71 74 75 73 71 72 76 79 73 75 81
93 95 93 88 69 82 87 89 88 89 96 98 96 97 96 98 95 93 90 93 91 92 90 88 85 82 82 80 81 78 76 75 78 79 79 81 80 79 79 78 83 83 83 89
86 82 87 91 89 90 93 92 92 87 88 98 98 97 97 98 97 95 93 90 90 90 88 83 83 82 80 81 80 78 78 80 83 83 86 90 92 92 91 91 95 96 95 92
79 77 81 90 95 98 96 95 93 88 86 89 96 98 98 97 98 95 96 97 95 93 91 84 79 78 82 85 83 81 81 79 81 83 88 94 97 98 97 97 99 98 97 95
52 74 85 84 89 88 87 86 87 82 79 84 92 97 98 98 98 96 97 96 94 89 81 77 79 80 81 83 83 82 80 80 81 82 84 85 87 88 88 91 94 94 94 92
50 57 65 82 91 89 86 85 88 84 82 90 92 97 98 98 98 98 95 93 91 83 82 79 79 80 83 81 81 80 81 81 79 79 79 78 77 77 78 82 84 89 92 94
49 50 55 61 70 85 88 92 93 94 84 94 98 97 97 96 98 96 93 92 90 86 81 79 79 81 79 82 82 82 80 77 73 72 69 66 66 67 67 68 71 76 81 90